TimeEDT,TemperatureF,Dew PointF,Humidity,Sea Level PressureIn,VisibilityMPH,Wind Direction,Wind SpeedMPH,Gust SpeedMPH,PrecipitationIn,Events,Conditions,WindDirDegrees,DateUTC
12:53 AM,73.0,71.1,93,29.99,6.0,SE,4.6,-,0.00,Rain,Light Rain,130,2013-03-19 04:53:00
1:53 AM,73.0,71.1,93,29.96,7.0,South,3.5,-,0.00,,Overcast,170,2013-03-19 05:53:00
2:46 AM,73.4,69.8,88,29.98,6.0,WSW,5.8,-,N/A,,Overcast,250,2013-03-19 06:46:00
2:53 AM,73.0,70.0,90,29.98,6.0,WSW,4.6,-,N/A,,Overcast,250,2013-03-19 06:53:00
3:53 AM,72.0,71.1,97,29.93,6.0,Calm,Calm,-,0.06,Rain,Light Rain,0,2013-03-19 07:53:00
4:02 AM,71.6,71.6,100,29.92,6.0,SSE,4.6,-,0.01,Rain,Light Rain,160,2013-03-19 08:02:00
4:53 AM,73.0,71.1,93,29.91,6.0,South,10.4,17.3,0.01,Rain,Light Rain,170,2013-03-19 08:53:00
5:53 AM,71.1,66.9,87,29.91,9.0,SSW,8.1,17.3,0.00,,Overcast,200,2013-03-19 09:53:00
6:53 AM,71.1,66.9,87,29.97,8.0,NW,6.9,-,0.00,,Overcast,310,2013-03-19 10:53:00
7:49 AM,69.8,66.2,88,29.99,10.0,WNW,5.8,-,0.00,,Overcast,290,2013-03-19 11:49:00
7:53 AM,70.0,66.9,90,29.99,10.0,WNW,8.1,-,0.00,,Overcast,290,2013-03-19 11:53:00
8:11 AM,69.8,66.2,88,29.99,10.0,Calm,Calm,-,N/A,,Mostly Cloudy,0,2013-03-19 12:11:00
8:53 AM,71.1,66.9,87,30.00,10.0,Variable,4.6,-,N/A,,Overcast,0,2013-03-19 12:53:00
9:53 AM,71.1,66.9,87,29.99,10.0,NW,3.5,-,N/A,,Overcast,310,2013-03-19 13:53:00
10:53 AM,72.0,66.0,81,30.01,10.0,NW,5.8,-,N/A,,Overcast,320,2013-03-19 14:53:00
11:53 AM,73.9,66.9,79,30.03,10.0,Variable,3.5,-,0.00,,Overcast,0,2013-03-19 15:53:00
12:53 PM,75.0,66.9,76,30.03,10.0,West,4.6,-,N/A,,Overcast,270,2013-03-19 16:53:00
1:53 PM,75.9,64.0,67,30.01,10.0,WNW,4.6,-,N/A,,Overcast,290,2013-03-19 17:53:00
2:53 PM,77.0,64.0,64,29.97,10.0,WSW,3.5,-,N/A,,Overcast,240,2013-03-19 18:53:00
3:53 PM,78.1,63.0,60,29.96,10.0,WNW,4.6,-,N/A,,Mostly Cloudy,290,2013-03-19 19:53:00
4:53 PM,77.0,63.0,62,29.95,10.0,West,4.6,-,N/A,,Mostly Cloudy,280,2013-03-19 20:53:00
5:53 PM,77.0,63.0,62,29.93,10.0,Calm,Calm,-,N/A,,Mostly Cloudy,0,2013-03-19 21:53:00
6:53 PM,77.0,63.0,62,29.92,10.0,SSW,5.8,-,N/A,,Scattered Clouds,200,2013-03-19 22:53:00
7:53 PM,75.9,63.0,64,29.95,10.0,West,3.5,-,N/A,,Scattered Clouds,280,2013-03-19 23:53:00
8:53 PM,73.9,64.0,71,29.97,10.0,Calm,Calm,-,N/A,,Scattered Clouds,0,2013-03-20 00:53:00
9:53 PM,73.0,64.0,73,29.98,10.0,Calm,Calm,-,N/A,,Partly Cloudy,0,2013-03-20 01:53:00
10:53 PM,72.0,64.0,76,29.99,10.0,WSW,3.5,-,N/A,,Partly Cloudy,250,2013-03-20 02:53:00
11:53 PM,69.1,63.0,81,29.98,10.0,WSW,4.6,-,N/A,,Partly Cloudy,250,2013-03-20 03:53:00